General Aviation Weather

Text Reports

Enter one or more of the following location identifiers separated by a space:

Zip Code, Four-Character ICAO or Three-Character IATA airport codes.

METAR - Aviation Routine Weather Report
KBAX - Bad Axe, Michigan
Updated at 3:36 AM GMT on September 17, 2014 (11:36 PM EDT):
METAR KBAX 170336Z AUTO 00000KT 10SM CLR 05/05 A3006 RMK AO2 T00530053
TAF - Terminal Area Forecast
KBAX - Bad Axe, Michigan
Updated at 3:36 AM GMT on September 17, 2014 (11:36 PM EDT):
No TAF is currently available for this location.
Decoded:
No decoded TAF is available.
PIREP - Pilot Weather Report
KBAX - Bad Axe, Michigan
Updated at 3:36 AM GMT on September 17, 2014 (11:36 PM EDT):
No PIREP is currently available for this location.
AIRMET - Airmens Meteorological Information
KBAX - Bad Axe, Michigan
Updated at 3:36 AM GMT on September 17, 2014 (11:36 PM EDT):
No AIRMET is currently available for this location.
SIGMET - Significant Meteorological Information
KBAX - Bad Axe, Michigan
Updated at 3:36 AM GMT on September 17, 2014 (11:36 PM EDT):
No SIGMET is currently available for this location.
NOTAM - Notice to Airmen
KBAX - Bad Axe, Michigan
Updated at 3:36 AM GMT on September 17, 2014 (11:36 PM EDT):
No NOTAM is currently available for this location.
Forecast Area
KBAX - Bad Axe, Michigan
Updated at 3:36 AM GMT on September 17, 2014 (11:36 PM EDT):
No NOTAM is currently available for this location.
Aviation Weather Maps